Location: DARK SKY Beskydy - Park tmavé oblohy, www.darkskybeskydy.cz
(49.4926°N, 18.5016°E)
Time: 13:03:45
(UTC+01:00)

Transit 2A - All Passes

Search period start: 22 February 2024 00:00
Search period end: 03 March 2024 00:00
Orbit: 600 x 953 km, 66.7° (Epoch: 22 February)

Date Brightness Start Highest point End Pass type
(mag) Time Alt. Az. Time Alt. Az. Time Alt. Az.
22 Feb - 02:42:41 10° NNW 02:45:57 19° NNE 02:49:25 10° ENE visible
22 Feb - 04:25:03 10° NNW 04:29:47 74° NE 04:34:59 10° SE visible
22 Feb - 06:09:01 10° WNW 06:12:28 19° WSW 06:16:07 10° SSW visible
22 Feb - 19:10:37 10° SSE 19:13:40 19° ESE 19:16:41 10° ENE visible
22 Feb - 20:51:59 10° SW 20:56:17 60° NW 21:00:37 10° NNE night (unlit)
22 Feb - 22:37:43 10° WNW 22:40:18 15° NNW 22:42:56 10° N night (unlit)
23 Feb - 02:07:53 10° N 02:10:38 15° NNE 02:13:30 10° ENE visible
23 Feb - 03:50:06 10° NNW 03:54:43 53° NE 03:59:46 10° SE visible
23 Feb - 05:33:31 10° WNW 05:37:37 28° WSW 05:42:02 10° S visible
23 Feb - 18:37:07 10° SE 18:38:53 12° ESE 18:40:40 10° E visible
23 Feb - 20:16:53 10° SW 20:21:14 87° WNW 20:25:38 10° NE visible
23 Feb - 22:01:53 10° WNW 22:04:58 19° NNW 22:08:08 10° NNE night (unlit)
24 Feb - 01:33:09 10° N 01:35:16 13° NNE 01:37:26 10° NE visible
24 Feb - 03:15:11 10° NNW 03:19:36 39° NE 03:24:25 10° ESE visible
24 Feb - 04:58:14 10° NW 05:02:43 39° WSW 05:07:37 10° S visible
24 Feb - 19:41:58 10° SSW 19:46:15 63° ESE 19:50:35 10° NE visible
24 Feb - 21:26:11 10° W 21:29:43 24° NW 21:33:19 10° NNE visible
25 Feb - 00:58:30 10° N 00:59:51 11° NNE 01:01:14 10° NNE night (unlit)
25 Feb - 02:40:18 10° NNW 02:44:27 30° NE 02:48:54 10° ESE visible
25 Feb - 04:23:05 10° NW 04:27:47 57° WSW 04:32:57 10° SSE visible
25 Feb - 19:07:14 10° S 19:11:20 41° ESE 19:15:26 10° NE visible
25 Feb - 20:50:37 10° WSW 20:54:30 31° NW 20:58:27 10° NNE visible
25 Feb - 22:37:51 10° NNW 22:39:03 11° NNW 22:40:17 10° N night (unlit)
26 Feb - 02:05:26 10° NNW 02:09:13 23° NE 02:13:15 10° E visible
26 Feb - 03:48:00 10° NW 03:52:48 80° SW 03:58:05 10° SSE visible
26 Feb - 05:32:52 10° WNW 05:35:17 13° WSW 05:37:45 10° SW visible
26 Feb - 18:32:46 10° S 18:36:27 28° ESE 18:40:09 10° NE visible
26 Feb - 20:15:13 10° WSW 20:19:20 42° NW 20:23:33 10° NNE visible
26 Feb - 22:01:39 10° NW 22:03:39 13° NNW 22:05:41 10° N visible
27 Feb - 01:30:37 10° NNW 01:33:57 19° NNE 01:37:28 10° ENE night (unlit)
27 Feb - 03:13:00 10° NNW 03:17:47 74° NE 03:23:02 10° SE visible
27 Feb - 04:56:57 10° WNW 05:00:28 20° WSW 05:04:13 10° SSW visible
27 Feb - 17:58:37 10° SSE 18:01:38 19° ESE 18:04:39 10° ENE visible
27 Feb - 19:39:58 10° SW 19:44:14 60° NW 19:48:36 10° NNE visible
27 Feb - 21:25:39 10° WNW 21:28:17 15° NNW 21:30:56 10° N visible
28 Feb - 00:55:48 10° N 00:58:37 16° NNE 01:01:33 10° ENE night (unlit)
28 Feb - 02:38:02 10° NNW 02:42:42 53° NE 02:47:50 10° SE visible
28 Feb - 04:21:27 10° NW 04:25:37 28° WSW 04:30:07 10° S visible
28 Feb - 17:25:08 10° SE 17:26:52 12° ESE 17:28:36 10° E daylight
28 Feb - 19:04:51 10° SW 19:09:12 88° NW 19:13:37 10° NE visible
28 Feb - 20:49:49 10° WNW 20:52:56 19° NNW 20:56:09 10° NNE visible
29 Feb - 00:21:03 10° N 00:23:14 13° NNE 00:25:30 10° NE night (unlit)
29 Feb - 02:03:07 10° NNW 02:07:35 39° NE 02:12:27 10° ESE night (unlit)
29 Feb - 03:46:10 10° NW 03:50:43 40° WSW 03:55:41 10° S visible
29 Feb - 18:29:56 10° SSW 18:34:13 62° ESE 18:38:33 10° NE visible
29 Feb - 20:14:07 10° W 20:17:40 24° NW 20:21:18 10° NNE visible
29 Feb - 23:46:21 10° N 23:47:49 11° NNE 23:49:19 10° NE night (unlit)
01 Mar - 01:28:14 10° NNW 01:32:25 30° NE 01:36:56 10° ESE night (unlit)
01 Mar - 03:11:01 10° NW 03:15:46 57° WSW 03:21:01 10° SSE night (unlit)
01 Mar - 17:55:13 10° S 17:59:17 41° ESE 18:03:24 10° NE visible
01 Mar - 19:38:34 10° WSW 19:42:26 31° NW 19:46:25 10° NNE visible
01 Mar - 21:25:43 10° NNW 21:27:01 11° NNW 21:28:21 10° N visible
01 Mar - 23:12:10 10° N 23:12:22 10° NNE 23:12:34 10° NNE visible
02 Mar - 00:53:21 10° NNW 00:57:11 24° NE 01:01:17 10° E night (unlit)
02 Mar - 02:35:56 10° NW 02:40:47 81° SW 02:46:09 10° SSE night (unlit)
02 Mar - 04:20:45 10° WNW 04:23:16 14° WSW 04:25:53 10° SW night (unlit)
02 Mar - 17:20:44 10° S 17:24:24 27° ESE 17:28:07 10° NE daylight
02 Mar - 19:03:09 10° WSW 19:07:17 42° NW 19:11:31 10° NNE visible
02 Mar - 20:49:32 10° NW 20:51:36 13° NNW 20:53:41 10° N visible
